When you browse on this site, cookies collect data to enhance your experience and personalize the content and advertising you see.
Visit our Privacy Policy to learn more. By continuing to use the site, you agree to this use of cookies and data.
  • In Hungary
  • List of Countries
  • For 7 days
  • Water Temperature
  • Weather Map
  • News
  • Weather Widgets
  • user-avatar
    Login

    Hourly Weather Gold Coast

    Today, 26 May, Tuesday

    Time Temperature Precipitation Wind Pressure Humidity
    00:00 +12°C° 0 mm 3 mps 758 mmHg 76%
    01:00 +13°C° 0 mm 2 mps 758 mmHg 75%
    02:00 +13°C° 0 mm 2 mps 758 mmHg 76%
    03:00 +12°C° 0 mm 2 mps 758 mmHg 77%
    04:00 +12°C° 0 mm 2 mps 758 mmHg 77%
    05:00 +12°C° 0 mm 2 mps 758 mmHg 77%
    06:00 +12°C° 0 mm 2 mps 759 mmHg 77%
    07:00 +12°C° 0 mm 2 mps 759 mmHg 78%
    08:00 +15°C° 0 mm 1 mps 759 mmHg 68%
    09:00 +19°C° 0 mm 1 mps 759 mmHg 58%
    10:00 +23°C° 0 mm 1 mps 759 mmHg 46%
    11:00 +24°C° 0 mm 1 mps 759 mmHg 44%
    12:00 +25°C° 0 mm 1 mps 758 mmHg 43%
    13:00 +25°C° 0 mm 1 mps 758 mmHg 41%
    14:00 +25°C° 0 mm 2 mps 758 mmHg 45%
    15:00 +24°C° 0 mm 2 mps 758 mmHg 50%
    16:00 +21°C° 0 mm 2 mps 758 mmHg 55%
    17:00 +20°C° 0 mm 2 mps 758 mmHg 59%
    18:00 +18°C° 0 mm 3 mps 759 mmHg 64%
    19:00 +16°C° 0 mm 3 mps 759 mmHg 68%
    20:00 +17°C° 0 mm 2 mps 759 mmHg 66%
    21:00 +17°C° 0 mm 2 mps 760 mmHg 64%
    22:00 +17°C° 0 mm 2 mps 760 mmHg 64%
    23:00 +17°C° 0 mm 2 mps 760 mmHg 65%

    Tomorrow, 27 May, Wednesday

    Time Temperature Precipitation Wind Pressure Humidity
    00:00 +18°C° 0 mm 1 mps 760 mmHg 65%
    01:00 +18°C° 0 mm 1 mps 760 mmHg 66%
    02:00 +18°C° 0 mm 1 mps 759 mmHg 70%
    03:00 +16°C° 0 mm 1 mps 759 mmHg 75%
    04:00 +16°C° 0 mm 2 mps 759 mmHg 79%
    05:00 +16°C° 0 mm 2 mps 760 mmHg 80%
    06:00 +16°C° 0 mm 2 mps 760 mmHg 81%
    07:00 +16°C° 0 mm 2 mps 761 mmHg 82%
    08:00 +18°C° 0 mm 2 mps 761 mmHg 74%
    09:00 +21°C° 0 mm 1 mps 761 mmHg 66%
    10:00 +23°C° 0 mm 1 mps 761 mmHg 59%
    11:00 +24°C° 0 mm 1 mps 760 mmHg 59%
    12:00 +24°C° 0 mm 1 mps 760 mmHg 60%
    13:00 +24°C° 0 mm 1 mps 759 mmHg 60%
    14:00 +23°C° 0.1 mm 1 mps 759 mmHg 65%
    15:00 +23°C° 0.1 mm 1 mps 759 mmHg 70%
    16:00 +22°C° 0.1 mm 1 mps 759 mmHg 74%
    17:00 +21°C° 0 mm 1 mps 759 mmHg 79%
    18:00 +19°C° 0 mm 1 mps 759 mmHg 85%
    19:00 +18°C° 0 mm 1 mps 760 mmHg 90%
    20:00 +16°C° 0 mm 1 mps 760 mmHg 91%
    21:00 +16°C° 0 mm 1 mps 760 mmHg 91%
    22:00 +16°C° 0 mm 1 mps 760 mmHg 92%
    23:00 +15°C° 0 mm 1 mps 760 mmHg 93%

    Day after tomorrow, 28 May, Thursday

    Time Temperature Precipitation Wind Pressure Humidity
    00:00 +15°C° 0 mm 1 mps 760 mmHg 93%
    01:00 +15°C° 0 mm 2 mps 760 mmHg 93%
    02:00 +15°C° 0 mm 1 mps 760 mmHg 94%
    03:00 +15°C° 0 mm 1 mps 760 mmHg 94%
    04:00 +15°C° 0 mm 1 mps 760 mmHg 94%
    05:00 +15°C° 0 mm 1 mps 760 mmHg 94%
    06:00 +15°C° 0 mm 1 mps 760 mmHg 93%
    07:00 +15°C° 0 mm 1 mps 761 mmHg 93%
    08:00 +19°C° 0 mm 1 mps 761 mmHg 82%
    09:00 +22°C° 0 mm 1 mps 761 mmHg 71%
    10:00 +24°C° 0 mm 1 mps 761 mmHg 60%
    11:00 +25°C° 0.1 mm 1 mps 760 mmHg 61%
    12:00 +25°C° 0.1 mm 1 mps 760 mmHg 61%
    13:00 +25°C° 0.1 mm 2 mps 759 mmHg 61%
    14:00 +24°C° 0.4 mm 2 mps 759 mmHg 69%
    15:00 +23°C° 0.4 mm 2 mps 759 mmHg 77%
    16:00 +21°C° 0.4 mm 2 mps 759 mmHg 84%
    17:00 +19°C° 0.7 mm 2 mps 760 mmHg 88%
    18:00 +18°C° 0.7 mm 2 mps 760 mmHg 91%
    19:00 +17°C° 0.7 mm 2 mps 761 mmHg 94%
    20:00 +16°C° 0.3 mm 2 mps 761 mmHg 95%
    21:00 +16°C° 0.3 mm 2 mps 761 mmHg 95%
    22:00 +16°C° 0.3 mm 2 mps 762 mmHg 95%
    23:00 +16°C° 0.2 mm 2 mps 761 mmHg 96%

    29 May, Friday

    Time Temperature Precipitation Wind Pressure Humidity
    00:00 +14°C° 0.2 mm 3 mps 761 mmHg 96%
    01:00 +14°C° 0.2 mm 3 mps 761 mmHg 96%
    02:00 +14°C° 0 mm 3 mps 761 mmHg 97%
    03:00 +14°C° 0 mm 4 mps 761 mmHg 97%
    04:00 +14°C° 0 mm 4 mps 761 mmHg 97%
    05:00 +13°C° 0 mm 4 mps 762 mmHg 97%
    06:00 +13°C° 0 mm 4 mps 762 mmHg 97%
    07:00 +13°C° 0 mm 4 mps 763 mmHg 97%
    08:00 +15°C° 0 mm 4 mps 763 mmHg 88%
    09:00 +18°C° 0 mm 4 mps 763 mmHg 80%
    10:00 +20°C° 0 mm 5 mps 764 mmHg 72%
    11:00 +21°C° 0 mm 5 mps 763 mmHg 66%
    12:00 +22°C° 0 mm 5 mps 763 mmHg 61%
    13:00 +23°C° 0 mm 5 mps 762 mmHg 55%
    14:00 +22°C° 0 mm 5 mps 762 mmHg 58%
    15:00 +21°C° 0 mm 5 mps 762 mmHg 61%
    16:00 +21°C° 0 mm 5 mps 763 mmHg 64%
    17:00 +19°C° 0 mm 5 mps 763 mmHg 72%
    18:00 +16°C° 0 mm 5 mps 764 mmHg 81%
    19:00 +14°C° 0 mm 4 mps 764 mmHg 89%
    20:00 +14°C° 0.1 mm 4 mps 764 mmHg 91%
    21:00 +14°C° 0.1 mm 4 mps 765 mmHg 92%
    22:00 +13°C° 0.1 mm 4 mps 765 mmHg 94%
    23:00 +13°C° 0.1 mm 4 mps 765 mmHg 94%

    30 May, Saturday

    Time Temperature Precipitation Wind Pressure Humidity
    00:00 +13°C° 0.1 mm 4 mps 765 mmHg 95%
    01:00 +13°C° 0.1 mm 4 mps 764 mmHg 96%
    02:00 +13°C° 0 mm 4 mps 764 mmHg 96%
    03:00 +13°C° 0 mm 4 mps 764 mmHg 96%
    04:00 +13°C° 0 mm 3 mps 764 mmHg 96%
    05:00 +12°C° 0 mm 4 mps 765 mmHg 96%
    06:00 +12°C° 0 mm 4 mps 765 mmHg 95%
    07:00 +12°C° 0 mm 4 mps 765 mmHg 95%
    08:00 +15°C° 0 mm 4 mps 765 mmHg 85%
    09:00 +18°C° 0 mm 4 mps 766 mmHg 76%
    10:00 +20°C° 0 mm 5 mps 766 mmHg 66%
    11:00 +21°C° 0 mm 5 mps 765 mmHg 63%
    12:00 +22°C° 0 mm 5 mps 765 mmHg 60%
    13:00 +22°C° 0 mm 5 mps 764 mmHg 56%
    14:00 +22°C° 0.1 mm 5 mps 764 mmHg 62%
    15:00 +21°C° 0.1 mm 4 mps 764 mmHg 67%
    16:00 +20°C° 0.1 mm 4 mps 764 mmHg 73%
    17:00 +19°C° 0.1 mm 4 mps 764 mmHg 80%
    18:00 +17°C° 0.1 mm 3 mps 764 mmHg 87%
    19:00 +16°C° 0.1 mm 3 mps 764 mmHg 94%
    20:00 +16°C° 0.2 mm 3 mps 765 mmHg 92%
    21:00 +16°C° 0.2 mm 3 mps 765 mmHg 90%
    22:00 +16°C° 0.2 mm 2 mps 765 mmHg 89%
    23:00 +16°C° 0.1 mm 2 mps 764 mmHg 91%

    31 May, Sunday

    Time Temperature Precipitation Wind Pressure Humidity
    00:00 +16°C° 0.1 mm 2 mps 764 mmHg 93%
    01:00 +15°C° 0.1 mm 2 mps 764 mmHg 94%
    02:00 +15°C° 0 mm 2 mps 763 mmHg 94%
    03:00 +15°C° 0 mm 2 mps 763 mmHg 94%
    04:00 +15°C° 0 mm 2 mps 763 mmHg 93%
    05:00 +15°C° 0 mm 2 mps 763 mmHg 94%
    06:00 +15°C° 0 mm 2 mps 764 mmHg 95%
    07:00 +14°C° 0 mm 2 mps 764 mmHg 96%
    08:00 +16°C° 0 mm 1 mps 764 mmHg 88%
    09:00 +19°C° 0 mm 1 mps 764 mmHg 80%
    10:00 +21°C° 0 mm 1 mps 764 mmHg 73%
    11:00 +21°C° 0 mm 1 mps 763 mmHg 71%
    12:00 +21°C° 0 mm 1 mps 763 mmHg 69%
    13:00 +21°C° 0 mm 1 mps 762 mmHg 67%
    14:00 +20°C° 0 mm 2 mps 762 mmHg 68%
    15:00 +20°C° 0 mm 2 mps 761 mmHg 70%
    16:00 +20°C° 0 mm 2 mps 761 mmHg 71%
    17:00 +18°C° 0 mm 2 mps 761 mmHg 78%
    18:00 +18°C° 0 mm 1 mps 762 mmHg 85%
    19:00 +15°C° 0 mm 1 mps 762 mmHg 92%
    20:00 +15°C° 0 mm 1 mps 762 mmHg 93%
    21:00 +15°C° 0 mm 1 mps 762 mmHg 94%
    22:00 +15°C° 0 mm 1 mps 762 mmHg 95%
    23:00 +15°C° 0 mm 1 mps 762 mmHg 96%
    Show more